Location: Chevoux
(46.3801°N, 4.9476°E)
Time: 00:45:31
(UTC+00:00)

ISS - Visible Passes

Search period start: 01 December 2021 00:00
Search period end: 11 December 2021 00:00
Orbit: 417 x 423 km, 51.6° (Epoch: 30 November)

Date Brightness Start Highest point End Pass type
(mag) Time Alt. Az. Time Alt. Az. Time Alt. Az.
01 Dec -3.2 17:44:12 10° WNW 17:47:25 42° NNE 17:47:25 42° NNE visible
02 Dec -2.9 16:56:59 10° WNW 17:00:11 36° N 17:02:15 18° ENE visible
02 Dec -1.4 18:33:50 10° WNW 18:35:14 23° WNW 18:35:14 23° WNW visible
03 Dec -3.9 17:46:37 10° WNW 17:50:01 74° NNE 17:50:09 73° NE visible
04 Dec -3.6 16:59:25 10° WNW 17:02:46 54° NNE 17:05:12 17° E visible
04 Dec -1.3 18:36:26 10° WNW 18:38:12 23° W 18:38:12 23° W visible
05 Dec -2.9 17:49:04 10° WNW 17:52:21 49° SW 17:53:25 34° SSE visible
06 Dec -3.6 17:01:47 10° WNW 17:05:10 75° SSW 17:08:34 10° SE visible
06 Dec -0.7 18:39:51 10° WSW 18:41:29 13° SW 18:41:55 13° SW visible
07 Dec -1.1 17:51:52 10° W 17:54:27 20° SW 17:57:01 10° S visible
08 Dec -1.8 17:04:18 10° WNW 17:07:21 31° SW 17:10:22 10° SSE visible
10 Dec -0.4 17:07:41 10° WSW 17:09:16 13° SW 17:10:50 10° SSW visible
